Lapse_Rate
6.4 6.5 6.3 6.3 6.4 6.2 6.3 6.4 6.6 6.7 6.7 6.5 6.4 6.3 6.2 6.1 5.9 5.9 6.0 6.3 6.5 6.5 6.4 6.3 6.2 6.1 6.1 6.0 5.9 5.9 5.9 5.9 6.1 6.1 6.1 6.1 6.2 6.3 6.4 6.4 6.4 6.5 6.7
6.4 6.5 6.3 6.3 6.3 6.3 6.4 6.5 6.6 6.6 6.5 6.5 6.5 6.3 6.2 6.1 6.0 6.0 6.0 6.2 6.5 6.5 6.4 6.4 6.3 6.1 6.0 6.0 5.8 5.8 5.8 5.9 5.9 5.9 6.0 5.9 6.0 6.0 6.2 6.3 6.2 6.2 6.3
6.4 6.3 6.3 6.2 6.3 6.3 6.5 6.5 6.5 6.5 6.4 6.5 6.5 6.4 6.3 6.2 6.1 6.0 6.1 6.2 6.4 6.5 6.5 6.4 6.3 6.2 6.0 6.0 5.9 5.8 5.7 5.7 5.8 5.8 5.8 5.9 5.9 5.9 6.0 6.0 6.0 6.0 6.0
6.5 6.4 6.4 6.2 6.2 6.3 6.6 6.6 6.4 6.6 6.5 6.6 6.6 6.5 6.4 6.3 6.2 6.1 6.1 6.1 6.2 6.3 6.3 6.4 6.3 6.2 6.1 6.1 6.1 6.0 5.9 5.8 5.7 5.7 5.8 5.7 5.7 5.9 6.0 6.0 6.0 5.9 5.8
6.4 6.4 6.3 6.3 6.2 6.2 6.5 6.5 6.4 6.5 6.5 6.6 6.6 6.5 6.4 6.3 6.3 6.1 6.1 6.1 6.1 6.2 6.2 6.3 6.3 6.2 6.2 6.1 6.1 6.1 6.1 5.9 5.8 5.8 5.8 5.7 5.8 5.8 5.9 6.0 6.1 6.1 6.0
6.4 6.3 6.2 6.2 6.2 6.2 6.5 6.4 6.5 6.5 6.5 6.5 6.6 6.6 6.5 6.3 6.2 6.1 6.0 6.0 6.0 6.1 6.1 6.1 6.1 6.2 6.2 6.2 6.1 6.0 6.0 6.1 6.0 5.9 5.8 5.8 5.8 5.9 5.9 5.9 5.9 6.0 6.1
6.3 6.2 6.2 6.1 6.2 6.3 6.4 6.6 6.5 6.4 6.6 6.6 6.5 6.5 6.5 6.3 6.2 6.0 6.0 5.9 5.9 5.9 6.0 6.1 6.1 6.0 6.1 6.0 5.8 5.8 5.9 5.8 5.9 5.8 5.8 5.7 5.7 5.7 5.7 5.7 5.7 5.7 5.8
6.3 6.2 6.2 6.0 6.2 6.3 6.3 6.5 6.6 6.5 6.5 6.5 6.5 6.5 6.4 6.3 6.1 6.0 5.8 5.8 5.9 5.9 6.0 6.1 6.2 6.2 6.1 6.1 6.0 5.9 5.7 5.6 5.7 5.8 5.7 5.6 5.6 5.6 5.6 5.8 5.8 5.8 5.7
6.2 6.2 6.1 5.9 6.1 6.2 6.2 6.2 6.3 6.4 6.4 6.4 6.4 6.5 6.4 6.3 6.1 5.9 5.8 5.7 5.8 5.9 6.0 6.0 6.1 6.0 6.1 6.2 6.1 6.0 5.9 5.8 5.8 5.7 5.7 5.8 5.8 5.7 5.6 5.6 5.7 5.8 5.9
6.2 6.1 6.0 5.9 5.9 6.1 6.1 6.2 6.2 6.2 6.2 6.3 6.3 6.4 6.3 6.1 6.1 6.1 5.7 5.6 5.7 5.8 6.0 6.0 6.0 5.8 5.8 5.9 5.9 5.9 5.9 5.9 5.8 5.7 5.6 5.5 5.6 5.7 5.7 5.7 5.7 5.7 5.8
6.2 6.1 6.0 5.9 5.9 6.0 6.0 6.0 6.1 6.1 6.1 6.1 6.2 6.2 6.1 6.0 5.9 6.0 6.3 5.6 5.6 5.4 5.8 6.0 5.8 5.7 5.5 5.5 5.5 5.5 5.6 5.6 5.6 5.5 5.4 5.3 5.3 5.4 5.5 5.6 5.7 5.7 5.8
6.1 6.1 5.8 5.9 5.8 5.9 6.0 6.0 6.0 6.0 6.0 6.0 6.0 6.0 5.8 5.7 5.5 5.5 5.8 5.9 6.2 6.2 5.7 5.3 5.1 5.1 5.3 5.3 5.4 5.4 5.5 5.6 5.5 5.4 5.4 5.4 5.3 5.3 5.3 5.4 5.4 5.4 5.4
6.0 5.9 5.9 5.9 5.9 5.9 6.0 5.9 5.9 5.9 5.8 5.8 5.8 5.7 5.5 5.4 5.4 5.4 5.4 5.5 5.7 6.1 6.2 6.3 5.8 5.1 4.8 4.6 4.8 5.1 5.3 5.3 5.3 5.4 5.4 5.3 5.3 5.3 5.4 5.5 5.5 5.4 5.3
6.0 5.8 6.0 6.0 5.8 5.9 5.9 5.8 5.8 5.6 5.5 5.6 5.6 5.4 5.2 5.3 5.2 5.2 5.1 5.1 5.3 5.4 5.5 5.8 6.0 5.9 5.6 5.3 5.0 4.7 4.6 4.6 4.8 4.9 4.9 4.9 4.9 4.9 4.9 5.0 5.0 5.1 5.1
6.1 6.0 6.0 5.9 5.8 5.8 5.7 5.6 5.5 5.4 5.4 5.4 5.2 5.2 5.1 4.9 4.8 4.8 4.7 4.7 4.8 4.9 5.0 5.3 5.6 5.8 5.7 5.5 5.3 5.2 5.0 4.8 4.5 4.3 4.3 4.4 4.5 4.5 4.5 4.6 4.7 4.9 5.1
6.2 5.9 6.0 5.8 5.7 5.7 5.5 5.3 5.3 5.1 5.1 5.1 4.9 4.8 4.7 4.8 4.7 4.7 4.7 4.6 4.6 4.5 4.7 4.6 4.4 4.5 4.6 4.7 4.8 4.9 5.0 5.0 5.1 5.0 4.8 4.7 4.7 4.7 4.8 4.8 4.8 4.8 4.9
5.9 6.0 5.8 5.8 5.8 5.4 5.3 5.1 5.0 4.9 4.9 4.8 4.7 4.7 4.7 4.8 4.7 4.7 4.7 4.6 4.6 4.5 4.5 4.5 4.3 4.2 4.2 4.4 4.6 4.6 4.8 4.8 4.9 5.0 5.1 5.2 5.1 5.1 5.2 5.2 5.2 5.1 5.1
6.0 5.9 5.8 5.8 5.5 5.2 5.0 4.9 4.8 4.8 4.8 4.8 4.7 4.7 4.6 4.6 4.7 4.7 4.6 4.5 4.5 4.3 4.3 4.3 4.3 4.3 4.2 4.4 4.4 4.6 4.9 5.0 5.1 5.3 5.3 5.2 5.3 5.2 5.1 5.1 5.1 5.3 5.5
5.8 5.8 5.8 5.5 5.1 5.0 4.9 4.8 4.7 4.7 4.7 4.7 4.6 4.6 4.7 4.6 4.6 4.5 4.5 4.5 4.5 4.4 4.2 4.2 4.2 4.3 4.3 4.3 4.4 4.6 4.7 4.9 5.0 4.9 5.0 5.1 5.2 5.2 5.2 5.4 5.5 5.7 5.7
5.7 5.6 5.4 5.1 4.9 4.9 4.8 4.7 4.6 4.6 4.6 4.5 4.5 4.5 4.4 4.4 4.4 4.4 4.4 4.4 4.3 4.4 4.6 4.7 4.7 4.6 4.7 4.8 4.8 4.6 4.8 4.9 5.1 5.2 5.2 5.1 4.9 5.1 5.4 5.5 5.6 5.5 5.7
5.5 5.3 5.1 4.9 4.8 4.7 4.6 4.5 4.5 4.6 4.6 4.6 4.4 4.4 4.4 4.4 4.3 4.2 4.2 4.2 4.1 4.1 4.3 4.4 4.5 4.5 4.6 4.9 4.8 4.7 4.6 4.7 4.7 4.5 4.5 4.8 5.0 5.1 5.3 5.1 5.2 5.5 5.6
5.3 5.1 4.8 4.7 4.6 4.5 4.4 4.5 4.5 4.5 4.4 4.3 4.4 4.5 4.5 4.4 4.5 4.4 4.3 4.1 4.0 4.1 4.1 3.9 3.7 3.7 4.0 4.0 3.9 4.0 3.9 3.9 4.0 4.4 4.6 5.1 4.8 5.1 4.8 4.8 5.0 5.1 5.2
5.0 4.8 4.7 4.5 4.4 4.4 4.4 4.4 4.3 4.3 4.2 4.3 4.4 4.3 4.2 4.2 4.1 4.0 4.1 4.1 4.2 4.0 3.9 3.6 3.8 3.9 3.9 3.9 3.8 3.9 4.0 4.0 4.4 5.0 4.9 5.0 5.0 4.9 4.9 4.9 5.1 5.1 5.2
4.8 4.7 4.5 4.4 4.4 4.4 4.4 4.3 4.3 4.3 4.4 4.2 4.2 4.1 3.8 3.8 3.8 3.8 3.8 4.0 4.0 4.0 3.7 3.6 3.6 3.7 3.9 4.0 4.0 3.7 4.0 4.5 4.9 5.3 5.2 5.2 5.8 5.7 5.7 6.0 6.1 6.1 6.3
4.6 4.5 4.5 4.4 4.4 4.3 4.3 4.3 4.5 4.4 4.5 4.3 4.0 4.0 4.0 4.1 4.2 4.4 4.5 4.8 4.8 4.4 3.9 3.8 3.9 4.0 4.0 4.0 4.1 4.3 4.8 5.1 5.7 6.3 6.2 6.0 6.3 6.4 6.7 7.2 7.3 7.4 7.4
4.6 4.5 4.5 4.4 4.3 4.5 4.5 4.4 4.5 4.3 4.1 4.2 4.5 4.4 4.5 4.1 4.1 4.8 4.7 4.6 4.3 3.9 3.8 3.9 3.8 4.0 4.4 4.7 5.1 5.3 5.5 5.8 6.2 6.7 6.9 7.0 7.3 7.2 7.6 8.2 8.2 8.1 8.2
Wind_Speed
5 5 7 7 6 6 6 5 6 6 6 5 6 6 4 5 5 5 5 9 10 10 11 10 9 8 8 7 7 10 11 10 10 9 8 9 10 10 9 10 9 8 10
8 6 6 5 5 5 5 4 5 4 4 3 4 4 3 2 2 4 4 7 10 10 10 9 9 8 8 8 7 7 9 10 10 9 8 8 9 9 7 7 9 8 11
8 7 5 4 4 5 5 4 5 5 4 3 3 3 3 4 1 2 2 4 6 8 8 8 8 8 8 8 7 6 7 8 9 9 9 8 8 9 7 6 6 7 7
8 8 5 3 6 6 4 3 2 3 3 3 2 3 3 3 2 1 1 2 4 5 6 7 8 8 9 9 8 8 8 8 8 8 8 8 8 7 7 7 7 7 7
8 8 6 4 6 7 4 2 3 3 3 3 4 3 3 2 3 2 2 3 4 5 6 7 7 8 9 10 10 9 10 10 10 10 9 9 9 9 8 8 7 8 9
8 8 6 6 6 4 3 3 3 4 3 2 3 3 3 2 2 1 2 4 5 5 6 6 7 8 9 10 11 11 12 11 11 12 11 11 11 11 11 11 10 9 9
7 8 6 7 7 4 3 2 1 4 4 4 2 3 2 2 1 1 2 3 5 5 7 8 8 9 10 10 11 12 13 13 14 14 13 13 13 13 12 12 13 12 11
7 7 5 5 6 3 4 4 4 2 2 4 2 2 4 4 3 3 3 3 4 6 7 10 10 11 13 14 15 15 15 15 15 15 15 15 15 15 15 15 15 15 13
6 8 7 8 5 3 3 3 3 5 2 3 6 3 3 2 3 3 3 3 5 3 6 9 10 14 15 15 15 16 16 17 17 17 17 17 17 17 18 17 17 16 16
6 7 7 7 6 4 3 2 2 3 2 3 2 3 4 2 1 4 3 3 3 4 5 7 11 15 16 14 12 12 14 15 17 19 19 19 19 19 19 19 19 19 18
6 6 6 6 5 4 3 3 3 4 2 2 2 2 3 3 2 2 4 4 4 3 4 5 11 13 14 11 11 10 11 13 14 16 18 20 21 21 21 21 21 20 20
3 4 6 5 5 4 3 2 3 3 3 3 1 2 1 1 1 0 2 3 4 4 3 4 5 9 11 9 8 7 9 14 16 18 19 20 22 23 23 23 22 22 22
2 3 3 3 2 3 4 4 3 3 2 2 2 1 1 2 1 2 2 3 3 3 3 4 4 7 11 8 7 11 17 20 19 20 21 21 22 23 25 24 24 24 23
3 3 5 5 4 4 4 4 2 2 2 2 0 1 1 2 2 2 2 2 3 3 3 5 2 6 6 7 12 21 21 21 21 21 22 23 22 22 24 25 25 25 24
3 5 7 6 5 5 5 4 3 2 2 2 1 0 1 1 1 2 3 3 3 3 3 4 3 3 7 15 20 19 21 21 22 22 22 23 23 23 23 23 25 27 27
5 5 5 6 5 6 7 5 3 3 3 2 1 2 2 1 3 2 2 2 3 4 4 3 3 9 17 15 16 17 20 20 20 23 24 23 23 23 23 23 24 25 27
5 6 6 6 6 6 5 5 3 3 4 3 2 3 4 3 3 3 2 2 3 3 6 5 4 4 8 11 15 17 16 16 16 20 21 21 22 23 23 24 24 24 26
6 5 5 7 6 5 5 5 4 3 4 4 4 4 5 3 5 4 3 5 4 4 4 11 6 4 6 8 8 10 14 17 14 18 22 24 25 26 25 24 23 24 26
6 6 7 6 5 5 5 4 3 3 3 3 3 4 5 5 5 4 4 5 4 4 5 6 9 4 4 4 6 5 7 8 14 16 20 23 23 25 26 25 26 27 27
6 6 6 6 6 5 4 4 4 4 4 4 4 4 5 5 6 6 6 6 6 4 4 6 8 10 10 6 4 6 8 5 10 12 17 22 26 26 26 26 26 26 24
6 6 6 6 5 4 3 4 4 4 5 6 6 5 5 8 14 12 7 6 5 4 6 7 10 11 11 10 10 9 9 11 10 8 9 9 8 10 12 19 23 25 26
6 6 6 5 5 3 7 9 7 4 5 5 6 6 6 9 8 16 17 18 15 9 10 9 9 11 12 10 8 10 10 9 10 6 7 8 5 8 9 17 27 30 29
5 5 5 5 5 4 9 9 10 4 5 5 6 5 6 6 10 7 13 17 14 18 19 14 14 12 12 10 11 11 10 10 10 10 9 11 4 8 9 19 28 31 30
5 3 4 4 4 3 9 10 11 4 4 5 6 6 6 7 7 11 12 12 11 9 8 7 10 12 12 12 12 11 9 10 11 8 4 9 9 11 9 12 24 29 32
3 3 3 4 4 4 10 11 9 4 4 6 5 6 6 7 14 22 14 13 12 12 17 23 25 27 27 27 22 9 8 8 13 10 2 7 7 8 9 12 12 24 26
3 3 3 3 5 5 9 11 9 3 4 5 6 6 12 14 21 23 14 13 14 15 12 11 9 11 16 15 22 8 6 9 10 10 2 6 9 6 7 4 5 4 8
Wind_Direction
105 94 84 73 60 66 68 90 89 83 74 74 76 87 83 83 69 58 44 42 48 50 52 47 33 19 7 14 24 28 23 21 15 10 8 12 12 12 22 9 5 356 8
120 108 87 76 64 67 75 99 95 80 68 69 67 62 56 57 75 72 53 32 43 45 46 43 34 23 15 10 12 16 9 10 8 5 356 359 1 358 0 359 358 9 11
119 115 106 89 68 58 80 100 71 68 58 44 51 37 37 29 123 91 52 24 26 33 31 29 24 19 11 2 358 358 359 360 2 357 353 355 354 357 349 347 332 350 350
121 115 108 96 91 79 68 67 37 54 48 34 356 348 348 7 34 82 357 337 357 0 3 7 9 7 3 355 348 342 339 337 338 341 339 336 330 334 340 335 329 320 320
123 116 110 96 91 77 59 21 51 59 37 356 327 326 332 334 353 7 352 339 337 335 341 345 352 349 344 338 335 332 329 324 322 320 320 321 320 314 309 311 315 314 309
123 112 100 87 78 73 47 40 74 50 63 347 314 327 311 311 322 335 319 313 316 314 319 324 329 331 331 328 323 319 319 315 316 312 308 307 308 306 303 297 292 295 303
122 113 106 88 73 73 58 21 74 58 20 348 5 354 352 350 309 292 322 301 303 312 314 312 312 312 314 316 313 311 310 307 305 305 301 299 295 295 295 292 289 282 279
127 113 108 89 78 92 65 49 44 67 34 9 84 79 6 339 9 22 354 338 311 327 327 326 320 315 312 308 304 302 300 301 302 302 300 295 291 288 287 287 285 282 275
121 113 110 98 94 84 82 77 61 65 61 15 45 115 34 343 326 335 3 18 9 2 339 335 322 317 315 311 306 302 298 296 296 298 297 295 289 286 284 280 280 278 276
122 118 112 111 104 105 88 83 81 81 90 39 14 45 68 111 54 336 340 336 350 333 322 321 315 317 317 319 316 309 306 302 297 294 293 292 289 283 280 277 274 276 275
121 127 124 124 116 98 104 99 75 76 72 95 65 22 50 56 81 129 284 312 329 296 298 295 306 306 318 324 321 327 331 330 320 307 296 290 287 283 279 273 270 267 270
119 142 127 125 113 113 108 106 97 93 96 98 99 91 108 108 274 80 289 295 271 292 280 287 281 298 312 323 323 326 338 332 320 311 304 296 289 282 279 276 272 271 271
176 144 148 122 104 102 104 109 99 98 116 105 114 145 163 202 167 191 193 272 291 305 307 263 269 280 306 311 323 327 324 317 313 308 303 299 295 292 283 279 277 274 274
129 141 128 113 107 103 95 98 89 86 96 84 80 228 266 241 197 193 207 204 300 278 306 262 285 288 293 308 315 312 309 308 310 309 307 304 300 297 292 284 278 276 275
123 116 103 100 94 88 91 87 65 51 52 58 17 237 251 293 243 232 223 200 196 285 270 302 304 305 300 300 298 298 297 302 307 307 305 302 300 297 293 287 281 275 271
102 106 95 96 88 75 68 68 57 35 55 36 64 20 344 269 303 288 268 250 217 238 267 239 272 298 305 304 295 292 286 290 296 301 302 302 299 297 294 289 285 281 273
102 101 104 94 81 72 61 69 60 48 49 22 17 11 325 319 315 307 291 263 256 209 266 281 263 274 290 295 302 302 293 282 277 286 296 301 300 299 295 292 288 285 280
95 101 92 82 79 77 66 60 44 35 34 4 341 338 316 317 309 294 286 286 261 267 258 291 289 272 254 276 281 292 298 302 294 292 298 299 297 299 293 294 291 290 286
96 84 84 84 79 66 63 51 40 18 8 344 320 312 307 318 310 306 296 284 273 278 268 284 298 288 270 271 282 277 282 286 294 304 309 302 301 299 293 291 293 292 289
98 87 80 81 68 64 54 26 17 3 351 335 322 313 307 303 291 293 291 275 276 280 281 288 300 307 310 283 252 287 298 287 304 294 295 292 293 294 294 293 292 290 287
91 90 85 65 54 53 24 10 2 349 344 336 326 320 311 306 304 309 310 299 290 289 293 294 303 306 308 312 313 300 299 304 290 285 280 273 275 284 282 288 283 279 281
85 80 72 70 47 21 10 8 4 350 348 340 324 323 317 311 304 320 323 319 312 307 303 302 305 304 300 297 289 290 292 287 291 241 265 277 301 283 284 287 285 286 286
92 83 73 60 37 1 6 2 358 14 344 326 317 313 312 310 322 309 305 307 304 308 306 304 299 293 291 289 291 289 282 272 272 287 289 282 276 274 277 279 283 289 291
86 77 52 42 28 354 2 359 354 352 324 309 299 292 290 298 297 307 309 315 304 285 281 284 278 284 286 292 297 301 309 309 294 297 280 288 295 282 285 275 279 284 284
72 59 39 21 16 346 352 352 350 325 299 286 279 300 298 286 294 320 320 313 305 298 296 291 291 295 298 303 309 313 311 309 301 303 260 274 293 295 287 286 277 279 283
81 67 37 29 351 337 342 341 341 282 304 317 309 291 296 313 321 319 318 312 313 313 304 295 301 304 296 291 298 293 285 292 295 298 264 301 297 296 297 264 280 296 273